[[{"header":{"parameterUnit":"m.s-1","parameterCategory":1,"la1":30.2991,"la2":30.254,"lo1":-89.0895,"lo2":-89.0444,"dx":0.0017,"dy":0.0017,"nx":28,"ny":28,"refTime":"2022-11-30T15:00:00:Z","depth":0,"parameterNumber":2,"parameterNumberName":"U-component_of_WINDS"},"data":[0,0,0,0,0,0,0,0,0,0,0,0,0,0,0,0,0,0,0,0,0,0,0,0,0,0,0,0,0,0,0,0,0,0,0,0,0,0,0,0,0,0,0,0,0,0,0,0,0,0,0,0,0,0,0,0,0,0,-3.5822,-3.5822,0,-3.584,-3.584,-3.584,-3.5745,-3.5742,-3.5739,-3.5737,-3.5758,-3.5761,-3.5764,0,0,0,0,0,0,0,0,0,0,0,0,0,-3.5709,-3.5712,-3.5822,-3.5822,-3.5823,-3.584,-3.584,-3.584,-3.5745,-3.5742,-3.5739,-3.5736,-3.5757,-3.5761,-3.5764,0,0,0,0,0,0,0,0,0,0,0,0,0,-3.5746,-3.5713,-3.5822,-3.5777,-3.5773,-3.584,-3.584,-3.584,-3.5746,-3.5742,-3.5738,-3.5734,-3.5756,-3.576,-3.5765,-3.5876,0,0,-3.5779,-3.5781,0,0,0,0,0,0,0,0,-3.5744,-3.575,-3.5784,-3.578,-3.5776,-3.5786,-3.5808,-3.5852,-3.5747,-3.5757,-3.5737,-3.5732,-3.5771,-3.5774,-3.5786,-3.5877,-3.5878,-3.578,-3.5782,-3.5784,-3.5786,0,0,0,0,0,0,0,-3.5741,-3.5749,-3.5829,-3.5784,-3.578,-3.5757,-3.5758,-3.5816,-3.5787,-3.5755,-3.5749,-3.5752,-3.5768,-3.5782,-3.5786,-3.5878,-3.5779,-3.5784,-3.5786,-3.5788,-3.6061,-3.6066,0,0,0,0,0,0,-3.5744,-3.5747,-3.5828,-3.583,-3.5749,-3.5763,-3.5763,-3.5787,-3.5786,-3.5781,-3.5755,-3.5747,-3.5776,-3.5781,-3.5787,-3.5917,-3.5784,-3.5789,-3.5791,-3.6057,-3.6062,-3.6067,0,0,0,0,0,0,-3.5742,-3.5753,-3.5828,-3.5787,-3.5794,-3.5769,-3.5796,-3.579,-3.5803,-3.5785,-3.578,-3.5775,-3.5773,-3.578,-3.5854,-3.5917,-3.5791,-3.5795,-3.6052,-3.6059,-3.6065,-3.6179,0,0,0,0,0,0,-3.574,-3.5752,-3.5794,-3.5788,-3.5797,-3.5895,-3.58,-3.5793,-3.5811,-3.5801,-3.5802,-3.5799,-3.577,-3.5848,-3.5859,-3.5921,-3.5799,-3.6046,-3.6055,-3.6063,-3.617,-3.6189,-3.6206,0,0,0,0,0,-3.5736,-3.5826,-3.5796,-3.5807,-3.5848,-3.5899,-3.5904,-3.5868,-3.5817,-3.5859,-3.5847,-3.5799,-3.5908,-3.5856,-3.5868,-3.5932,-3.6042,-3.6052,-3.6062,-3.6162,-3.6185,-3.6205,0,0,0,0,0,0,-3.5841,-3.5824,-3.5792,-3.5882,-3.5893,-3.5883,-3.5934,-3.5894,-3.592,-3.591,-3.5865,-3.5866,-3.5949,-3.5947,-3.5891,-3.604,-3.5966,-3.5979,-3.6038,-3.606,-3.6078,-3.6077,-3.5803,0,0,0,0,0,-3.5874,-3.5916,-3.5899,-3.5981,-3.5988,-3.5961,-3.5981,-3.5953,-3.5962,-3.5966,-3.596,-3.5972,-3.6009,-3.6034,-3.6067,-3.6169,-3.6168,-3.6219,-3.6236,-3.6251,-3.6263,-3.6318,-3.6341,-3.61,-3.61,-3.61,0,0,-3.5944,-3.594,-3.597,-3.6002,-3.6007,-3.6052,-3.5965,-3.6016,-3.605,-3.5974,-3.6044,-3.604,-3.605,-3.6139,-3.6178,-3.6141,-3.633,-3.6264,-3.6276,-3.628,-3.6331,-3.6354,-3.6374,-3.6107,-3.6106,-3.6104,0,0,-3.6095,-3.6096,-3.6164,-3.6171,-3.6178,-3.6159,-3.6176,-3.6172,-3.6166,-3.6235,-3.618,-3.6219,-3.6283,-3.6293,-3.6307,-3.6461,-3.6418,-3.6473,-3.6567,-3.6621,-3.664,-3.6657,-3.6713,-3.6734,-3.6485,-3.6485,-3.6485,0,-3.6182,-3.6247,-3.6205,-3.626,-3.6277,-3.6209,-3.6279,-3.6287,-3.6306,-3.6319,-3.6277,-3.6356,-3.6358,-3.6449,-3.6486,-3.6499,-3.6518,-3.6473,-3.664,-3.6657,-3.6672,-3.6725,-3.6746,-3.6492,-3.6491,-3.649,-3.649,0,-3.6354,-3.64,-3.6454,-3.6473,-3.6495,-3.6558,-3.6526,-3.6554,-3.6523,-3.6509,-3.6581,-3.6581,-3.6613,-3.6632,-3.6603,-3.6719,-3.6696,-3.6648,-3.6573,-3.6702,-3.6752,-3.6772,-3.6501,-3.6499,-3.6497,-3.6495,0,0,-3.6573,-3.6567,-3.6588,-3.6596,-3.6599,-3.6634,-3.6694,-3.6724,-3.6749,-3.6764,-3.6814,-3.6869,-3.6825,-3.684,-3.6811,-3.6859,-3.6983,-3.6804,-3.6804,-3.6839,-3.7112,-3.715,-3.7175,-3.6953,-3.6957,-3.696,-3.7112,0,-3.6722,-3.6822,-3.6786,-3.689,-3.6932,-3.6869,-3.692,-3.6929,-3.6917,-3.6952,-3.6939,-3.698,-3.6917,-3.6926,-3.6969,-3.6958,-3.7037,-3.6947,-3.7001,-3.7003,-3.7002,-3.72,-3.724,-3.7384,-3.7131,-3.7134,-3.7137,0,-3.691,-3.6931,-3.7039,-3.7035,-3.7051,-3.7099,-3.7124,-3.7157,-3.7166,-3.7154,-3.7171,-3.7132,-3.7191,-3.7115,-3.7196,-3.7136,-3.7155,-3.7153,-3.7158,-3.7164,-3.7079,-3.7213,-3.7429,-3.7451,-3.7166,-3.7164,-3.7162,0,-3.7061,-3.7117,-3.7188,-3.7197,-3.7194,-3.7229,-3.7229,-3.7233,-3.7254,-3.7276,-3.7289,-3.7318,-3.7335,-3.7358,-3.7329,-3.7276,-3.7416,-3.7336,-3.7409,-3.741,-3.7443,-3.7442,-3.7667,-3.7453,-3.7452,-3.7452,-3.7452,0,-3.7232,-3.7301,-3.7256,-3.7301,-3.7376,-3.7334,-3.741,-3.7404,-3.7408,-3.745,-3.7397,-3.7438,-3.7396,-3.7434,-3.7411,-3.7483,-3.749,-3.7483,-3.7477,-3.749,-3.7491,-3.7504,-3.7494,-3.7458,-3.7456,-3.7455,-3.7454,0,-3.7415,-3.7388,-3.7462,-3.7452,-3.7452,-3.7508,-3.75,-3.7541,-3.7525,-3.758,-3.759,-3.7566,-3.7608,-3.758,-3.7622,-3.7607,-3.7702,-3.768,-3.7699,-3.7694,-3.7769,-3.7763,-3.8012,-3.8043,-3.7807,-3.7809,-3.7811,0,-3.7527,-3.7579,-3.7574,-3.7599,-3.7602,-3.7642,-3.7663,-3.7623,-3.7647,-3.766,-3.77,-3.7737,-3.7765,-3.7835,-3.7821,-3.7853,-3.7834,-3.7919,-3.7838,-3.785,-3.7837,-3.7836,-3.7841,-3.7936,-3.7939,-3.7941,-3.7943,0,-3.773,-3.7714,-3.7745,-3.7772,-3.7797,-3.7817,-3.7832,-3.7855,-3.7815,-3.7845,-3.7886,-3.7908,-3.795,-3.7988,-3.8015,-3.8016,-3.7974,-3.7968,-3.7986,-3.8001,-3.801,-3.8008,-3.7745,-3.7963,-3.7961,-3.7959,-3.7958,-3.7957,-3.7882,-3.7925,-3.7929,-3.7965,-3.7972,-3.7988,-3.8026,-3.8014,-3.8048,-3.8079,-3.8053,-3.8104,-3.8111,-3.8142,-3.8149,-3.8188,-3.8154,-3.8181,-3.8188,-3.8196,-3.8207,-3.8002,-3.8193,-3.8192,-3.8192,-3.8191,-3.8191,0,-3.8084,-3.8082,-3.8116,-3.8139,-3.8168,-3.8123,-3.8138,-3.8165,-3.821,-3.8219,-3.8247,-3.8296,-3.8332,-3.8321,-3.8354,-3.8388,-3.8369,-3.8398,-3.8396,-3.8398,-3.8235,-3.8216,-3.8412,-3.8412,-3.8412,-3.8412,-3.8412,-3.8412,-3.8192,-3.8263,-3.8247,-3.8321,-3.8319,-3.8367,-3.8379,-3.8394,-3.8401,-3.8457,-3.8487,-3.8479,-3.848,-3.8513,-3.8545,-3.8541,-3.8556,-3.8593,-3.8582,-3.8431,-3.8409,-3.8388,-3.837,-3.8596,-3.8596,-3.8741,-3.8743,-3.8744]},{"header":{"parameterUnit":"m.s-1","parameterCategory":1,"la1":30.2991,"la2":30.254,"lo1":-89.0895,"lo2":-89.0444,"dx":0.0017,"dy":0.0017,"nx":28,"ny":28,"refTime":"2022-11-30T15:00:00:Z","depth":0,"parameterNumber":3,"parameterNumberName":"V-component_of_WINDS"},"data":[0,0,0,0,0,0,0,0,0,0,0,0,0,0,0,0,0,0,0,0,0,0,0,0,0,0,0,0,0,0,0,0,0,0,0,0,0,0,0,0,0,0,0,0,0,0,0,0,0,0,0,0,0,0,0,0,0,0,-3.4246,-3.4247,0,-3.4287,-3.4288,-3.4288,-3.426,-3.4258,-3.4257,-3.4256,-3.4296,-3.4298,-3.4301,0,0,0,0,0,0,0,0,0,0,0,0,0,-3.4141,-3.4143,-3.4246,-3.4247,-3.4247,-3.4287,-3.4288,-3.4288,-3.426,-3.4258,-3.4257,-3.4255,-3.4295,-3.4298,-3.4301,0,0,0,0,0,0,0,0,0,0,0,0,0,-3.4185,-3.4144,-3.4246,-3.4238,-3.4238,-3.4287,-3.4288,-3.4288,-3.426,-3.4258,-3.4256,-3.4255,-3.4295,-3.4298,-3.4301,-3.436,0,0,-3.4312,-3.4313,0,0,0,0,0,0,0,0,-3.4182,-3.4189,-3.4239,-3.4239,-3.4238,-3.4266,-3.4265,-3.4313,-3.4261,-3.4252,-3.4256,-3.4254,-3.4288,-3.4292,-3.4303,-3.4362,-3.4364,-3.4312,-3.4314,-3.4315,-3.4316,0,0,0,0,0,0,0,-3.4179,-3.4187,-3.4262,-3.4239,-3.4239,-3.4231,-3.4236,-3.4274,-3.428,-3.4252,-3.425,-3.4256,-3.4287,-3.43,-3.4304,-3.4365,-3.4312,-3.4315,-3.4317,-3.4318,-3.4473,-3.4475,0,0,0,0,0,0,-3.4177,-3.4184,-3.4261,-3.4264,-3.4205,-3.4235,-3.4239,-3.4259,-3.4279,-3.4281,-3.4257,-3.4254,-3.4295,-3.43,-3.4305,-3.4376,-3.4315,-3.4318,-3.432,-3.4471,-3.4474,-3.4476,0,0,0,0,0,0,-3.4175,-3.4184,-3.4259,-3.4223,-3.4232,-3.4239,-3.4261,-3.4261,-3.4274,-3.4283,-3.4284,-3.427,-3.4294,-3.4301,-3.4347,-3.4377,-3.432,-3.4323,-3.4469,-3.4472,-3.4475,-3.4517,0,0,0,0,0,0,-3.4172,-3.4184,-3.4207,-3.4224,-3.4234,-3.4301,-3.4263,-3.4263,-3.428,-3.4277,-3.4295,-3.4296,-3.4293,-3.4342,-3.435,-3.438,-3.4326,-3.4466,-3.447,-3.4474,-3.4513,-3.4521,-3.4528,0,0,0,0,0,-3.4168,-3.4217,-3.4208,-3.4218,-3.4264,-3.4303,-3.4309,-3.4305,-3.4283,-3.4306,-3.4311,-3.4295,-3.4372,-3.4347,-3.4356,-3.4388,-3.4464,-3.4469,-3.4474,-3.451,-3.452,-3.4528,0,0,0,0,0,0,-3.4202,-3.4219,-3.421,-3.4265,-3.4283,-3.4298,-3.4327,-3.4316,-3.4339,-3.4335,-3.4328,-3.4333,-3.4381,-3.4389,-3.4361,-3.4445,-3.4415,-3.4421,-3.4439,-3.4448,-3.4456,-3.4453,-3.4329,0,0,0,0,0,-3.4216,-3.4248,-3.426,-3.4308,-3.4317,-3.4321,-3.4338,-3.4333,-3.4351,-3.4358,-3.4367,-3.4384,-3.4412,-3.4431,-3.4457,-3.4514,-3.4517,-3.454,-3.4547,-3.4554,-3.456,-3.459,-3.46,-3.4491,-3.4491,-3.4491,0,0,-3.4246,-3.4259,-3.4279,-3.4315,-3.4328,-3.436,-3.4327,-3.4362,-3.4385,-3.4363,-3.4407,-3.4415,-3.4433,-3.4485,-3.4508,-3.4493,-3.459,-3.456,-3.4565,-3.4567,-3.4596,-3.4606,-3.4615,-3.4495,-3.4494,-3.4493,0,0,-3.4315,-3.4328,-3.4369,-3.4383,-3.4404,-3.4405,-3.4415,-3.4432,-3.4436,-3.4481,-3.4464,-3.4491,-3.454,-3.4554,-3.4567,-3.4641,-3.4627,-3.465,-3.4689,-3.4719,-3.4727,-3.4735,-3.4761,-3.4771,-3.4655,-3.4656,-3.4656,0,-3.4348,-3.4396,-3.4392,-3.4428,-3.4444,-3.4426,-3.4467,-3.448,-3.4508,-3.4519,-3.4502,-3.4562,-3.4573,-3.4628,-3.4646,-3.4657,-3.4668,-3.4648,-3.4727,-3.4734,-3.4741,-3.4766,-3.4776,-3.4658,-3.4658,-3.4658,-3.4657,0,-3.4436,-3.447,-3.45,-3.4528,-3.4548,-3.4586,-3.4586,-3.4607,-3.46,-3.4603,-3.4648,-3.4661,-3.469,-3.4702,-3.4696,-3.4756,-3.4746,-3.4728,-3.4696,-3.4754,-3.4777,-3.4787,-3.4662,-3.4661,-3.466,-3.466,0,0,-3.4528,-3.4553,-3.4564,-3.4577,-3.4598,-3.4623,-3.466,-3.4688,-3.4705,-3.4725,-3.4755,-3.4796,-3.478,-3.4795,-3.479,-3.4816,-3.4873,-3.4795,-3.4795,-3.4809,-3.4939,-3.4953,-3.4964,-3.4864,-3.4866,-3.4867,-3.4938,0,-3.4599,-3.4665,-3.4661,-3.4722,-3.4753,-3.4735,-3.4768,-3.4784,-3.4788,-3.4813,-3.4817,-3.4846,-3.4822,-3.4831,-3.4856,-3.4861,-3.4899,-3.4856,-3.4892,-3.4893,-3.4888,-3.4976,-3.499,-3.5056,-3.4947,-3.4948,-3.4949,0,-3.469,-3.4713,-3.4777,-3.4794,-3.4806,-3.4835,-3.486,-3.4885,-3.4903,-3.4904,-3.4921,-3.4911,-3.4948,-3.4916,-3.4966,-3.4936,-3.4951,-3.4955,-3.4958,-3.4961,-3.4925,-3.4981,-3.5077,-3.5087,-3.4964,-3.4962,-3.4961,0,-3.475,-3.4797,-3.4842,-3.4853,-3.4873,-3.4894,-3.4903,-3.4918,-3.4935,-3.4957,-3.4968,-3.4993,-3.5007,-3.5027,-3.5024,-3.5001,-3.5075,-3.5043,-3.5077,-3.5077,-3.5093,-3.5092,-3.5192,-3.5102,-3.5102,-3.5102,-3.5102,0,-3.4829,-3.4869,-3.4869,-3.4897,-3.4941,-3.4936,-3.498,-3.4986,-3.5,-3.5028,-3.5014,-3.504,-3.5036,-3.5061,-3.506,-3.5101,-3.5107,-3.5109,-3.5108,-3.511,-3.511,-3.5119,-3.5115,-3.5105,-3.5104,-3.5104,-3.5103,0,-3.4904,-3.4906,-3.4953,-3.4969,-3.4973,-3.5005,-3.5017,-3.5043,-3.5046,-3.5081,-3.5089,-3.5093,-3.5123,-3.5122,-3.5156,-3.5154,-3.5205,-3.5199,-3.52,-3.5198,-3.5232,-3.5229,-3.5342,-3.5356,-3.5257,-3.5258,-3.5259,0,-3.4954,-3.4985,-3.5003,-3.5021,-3.5032,-3.5061,-3.5078,-3.5074,-3.5093,-3.5114,-3.5137,-3.5166,-3.5188,-3.5237,-3.5242,-3.5268,-3.5262,-3.53,-3.5265,-3.5267,-3.5262,-3.526,-3.5263,-3.5306,-3.5307,-3.5308,-3.5309,0,-3.5043,-3.5042,-3.5068,-3.5095,-3.5116,-3.5136,-3.5155,-3.517,-3.5168,-3.5189,-3.522,-3.5238,-3.5272,-3.53,-3.5325,-3.5333,-3.5321,-3.532,-3.5329,-3.5331,-3.5331,-3.5331,-3.5218,-3.5317,-3.5316,-3.5316,-3.5315,-3.5315,-3.5107,-3.5133,-3.515,-3.5179,-3.5193,-3.5211,-3.5236,-3.5241,-3.5267,-3.5295,-3.5291,-3.5325,-3.5341,-3.5372,-3.5383,-3.5409,-3.5396,-3.5409,-3.5412,-3.5416,-3.5419,-3.5326,-3.5413,-3.5413,-3.5413,-3.5413,-3.5413,0,-3.5195,-3.5205,-3.5232,-3.5259,-3.5281,-3.5268,-3.5288,-3.5308,-3.5338,-3.5354,-3.5377,-3.5412,-3.5439,-3.5446,-3.5472,-3.5492,-3.5487,-3.5499,-3.5497,-3.5499,-3.543,-3.5419,-3.5502,-3.5502,-3.5502,-3.5502,-3.5502,-3.5502,-3.5243,-3.5287,-3.5288,-3.5338,-3.5347,-3.5381,-3.5394,-3.5409,-3.5422,-3.5462,-3.5485,-3.549,-3.5502,-3.5529,-3.5553,-3.5554,-3.5565,-3.5579,-3.5578,-3.5513,-3.5504,-3.5496,-3.5486,-3.5581,-3.5581,-3.5645,-3.5646,-3.5646]}]]